EHI
31 36 43 48 52 55 54 52 49 44 42 40 36 30 27 23 18 17 20 21 20 18 15 15 16 14 13 13 13 13 12 11 11 10 7 5 6 7 8 10 9 7 6
33 39 46 52 54 55 54 52 49 45 42 41 38 33 29 26 23 23 25 24 22 19 16 16 16 14 12 13 13 13 12 11 12 11 8 7 7 7 8 9 9 8 8
36 40 48 55 58 58 55 52 50 47 44 42 38 34 31 28 27 29 29 25 22 19 18 19 19 16 13 12 13 13 12 11 11 10 9 8 7 8 8 8 8 8 9
39 41 47 55 61 62 58 55 53 51 48 44 38 34 30 28 29 31 30 26 21 19 18 19 21 18 13 11 11 11 12 11 10 9 9 8 7 7 8 7 8 9 9
40 41 45 53 60 62 59 56 57 56 54 48 41 36 32 30 31 33 33 28 23 20 18 19 20 18 13 10 9 9 11 12 10 9 8 8 7 7 7 7 8 9 9
39 41 44 47 53 57 57 58 61 60 56 50 45 40 37 35 36 37 35 29 24 21 19 19 20 19 14 11 10 9 11 12 11 8 7 8 8 7 7 7 7 8 9
37 40 41 42 47 54 58 60 62 60 55 50 47 43 41 40 40 40 37 30 25 23 22 21 21 19 16 13 11 10 11 12 11 9 8 9 9 8 8 6 5 6 7
34 36 39 41 44 51 57 59 59 57 53 50 48 45 43 41 41 41 37 30 25 24 23 23 22 19 16 13 12 11 11 12 13 11 11 10 9 9 7 5 4 4 4
30 32 38 43 43 46 52 53 53 53 51 50 47 43 42 42 41 39 35 28 24 23 24 24 22 20 16 13 12 11 10 12 14 14 13 13 11 8 5 4 4 3 1
27 30 36 40 40 41 44 47 48 48 49 48 43 40 41 43 40 35 31 28 24 23 24 23 22 21 18 17 15 12 10 12 15 15 14 14 13 10 6 4 4 4 2
27 29 33 34 35 37 41 45 45 44 45 45 43 41 42 44 40 33 28 27 25 23 22 21 22 21 20 20 19 15 12 14 15 14 13 13 13 12 9 7 7 6 5
26 29 30 32 33 36 40 44 43 41 41 42 42 40 41 42 39 32 27 25 25 23 20 20 20 21 20 21 20 17 14 14 14 12 10 10 10 11 10 10 9 6 5
28 30 32 34 35 36 39 41 40 39 39 39 38 35 35 36 33 29 25 23 23 22 20 18 18 18 18 17 17 16 14 13 13 11 9 9 9 10 10 10 8 6 5
30 32 35 37 36 36 38 37 37 37 37 36 34 31 30 28 27 25 23 21 21 21 20 18 16 15 14 13 13 13 13 13 13 11 9 8 9 10 10 9 7 6 6
30 33 37 39 38 37 36 36 35 34 33 31 30 28 25 24 23 24 23 20 18 18 18 17 14 13 11 9 9 10 11 11 10 8 6 5 5 6 6 5 4 4 4
30 32 36 39 40 37 34 34 34 32 29 26 26 24 22 20 21 22 21 19 17 15 15 14 13 11 8 5 4 7 9 10 8 7 5 2 1 2 2 2 1 1 2
30 31 33 37 38 34 31 31 32 31 26 22 22 22 20 19 18 18 18 18 17 16 14 13 13 11 7 2 1 3 7 8 8 8 6 3 1 2 2 1 1 1 1
30 30 32 35 34 29 27 28 28 27 24 21 20 20 20 19 17 16 16 16 17 16 15 13 13 11 7 3 1 1 4 6 7 8 7 4 3 3 3 3 2 2 2
31 32 32 32 30 27 27 26 22 21 21 20 19 19 19 19 18 17 16 15 15 14 13 12 12 10 7 3 1 1 3 5 6 6 5 4 3 3 3 3 3 4 4
32 33 32 30 28 28 29 26 20 18 18 19 19 19 19 19 19 19 18 15 13 11 10 10 10 9 6 3 1 1 4 5 4 4 3 3 3 2 2 2 3 4 4
31 32 31 29 27 28 29 26 21 18 19 19 18 19 19 19 19 19 17 14 11 10 10 10 10 9 6 3 1 1 3 4 3 3 3 3 3 1 0 1 2 3 3
30 30 29 28 26 24 25 24 22 21 21 20 18 18 18 18 17 16 14 12 10 9 8 8 9 9 6 4 2 1 1 2 3 3 3 3 2 1 0 0 1 1 1
26 26 26 26 23 20 19 20 21 22 22 20 18 17 17 17 15 13 12 10 9 8 7 7 8 8 6 4 3 1 0 1 2 3 3 2 1 0 0 0 0 0 0
20 23 25 24 22 19 17 18 20 21 22 20 17 15 14 14 13 11 9 9 8 7 7 8 8 7 6 5 4 2 1 1 1 2 2 2 1 0 0 0 0 0 0
16 19 23 24 22 20 19 19 20 20 20 18 15 12 11 12 11 9 7 6 6 5 7 7 7 6 5 5 4 3 3 2 2 3 3 3 2 1 1 1 1 1 1
14 17 21 23 22 21 20 21 21 20 19 17 14 11 10 11 10 7 5 4 4 4 4 5 5 4 4 3 3 3 3 3 3 3 3 3 3 2 2 2 2 2 2
Wind_Speed
7 8 9 10 10 9 8 6 6 6 4 4 4 3 3 2 2 3 3 3 2 2 1 1 1 1 1 1 0 1 1 2 1 1 1 1 2 3 3 2 2 3 3
7 8 9 9 9 9 8 7 5 6 5 4 3 3 3 2 3 2 3 3 3 2 2 1 1 1 1 1 1 1 1 2 1 1 1 1 1 1 3 3 3 3 3
9 9 9 9 9 9 9 7 6 5 4 4 3 3 2 2 2 3 3 3 3 2 1 2 1 1 1 1 1 1 2 2 1 0 0 1 1 1 1 2 2 2 2
9 9 10 10 9 9 9 7 6 5 4 4 4 5 4 3 3 3 3 3 3 3 2 2 1 1 1 1 2 1 2 2 2 1 1 1 1 0 0 0 1 1 2
9 9 9 9 9 9 9 8 7 5 5 5 5 4 4 3 3 3 4 4 3 3 2 2 1 1 1 2 2 1 2 2 2 2 1 2 2 2 1 1 1 1 1
8 8 7 7 8 9 9 8 7 6 5 5 4 4 4 4 4 4 4 3 3 2 2 2 2 1 1 1 2 2 2 2 2 2 2 2 1 1 2 2 2 2 1
7 8 8 7 7 8 9 8 8 7 6 5 4 4 4 4 4 3 4 3 2 2 2 2 2 2 2 1 1 2 2 2 2 2 2 2 2 2 1 1 2 2 1
6 7 8 8 7 7 8 8 8 7 6 5 5 4 4 3 2 2 2 2 2 2 3 3 2 2 2 2 1 2 2 2 2 3 3 2 2 1 2 2 2 2 2
7 7 6 7 7 7 7 7 8 7 6 5 4 4 4 3 3 3 2 2 2 3 3 3 3 2 2 1 1 2 2 2 2 2 2 2 2 2 2 2 2 2 2
5 5 5 5 6 6 7 7 7 7 6 5 5 5 4 4 3 3 3 2 2 2 3 3 3 2 2 2 2 2 2 1 1 1 2 2 2 2 2 2 2 2 2
5 4 4 4 5 6 7 7 7 6 5 5 5 4 5 5 4 3 3 2 2 2 3 2 2 2 2 2 2 2 1 1 1 1 1 2 2 2 1 1 1 1 1
5 5 5 4 5 5 5 6 6 6 5 5 4 4 4 4 4 4 3 3 2 2 2 2 2 3 3 2 2 2 2 1 1 1 1 2 2 2 1 1 1 1 1
4 4 5 4 4 5 4 5 5 5 5 5 5 4 4 4 4 3 3 3 3 2 2 2 2 2 2 1 1 2 2 1 1 1 1 1 1 1 1 2 1 1 2
4 4 4 4 3 3 3 4 4 4 5 5 5 4 4 4 4 3 3 3 3 2 2 2 2 2 1 1 1 1 2 2 1 1 1 1 1 2 2 2 1 1 2
4 3 4 3 3 3 3 3 3 3 4 4 4 3 3 3 3 3 3 3 2 3 2 2 2 2 2 1 0 1 2 1 1 1 1 1 0 1 1 2 1 1 1
4 3 3 3 3 2 2 3 3 3 4 4 4 4 4 4 3 3 3 3 3 2 2 2 2 2 1 2 2 1 1 1 2 2 1 1 1 1 1 1 1 1 2
3 3 3 3 3 2 2 2 2 2 3 3 4 4 4 4 4 4 4 3 3 2 2 2 2 2 1 2 1 1 1 2 2 2 2 3 2 1 1 1 2 2 2
3 3 3 3 3 3 2 2 2 2 3 3 3 4 4 4 4 3 3 3 2 2 2 2 2 2 2 3 1 1 2 2 2 2 2 2 1 1 1 1 2 2 2
3 4 4 4 3 3 2 2 1 2 2 3 3 3 3 3 3 3 3 3 2 2 2 2 2 2 3 3 2 0 2 1 1 1 1 1 0 1 1 1 2 2 2
3 4 4 4 3 3 2 2 2 1 1 2 2 2 2 2 2 2 2 2 2 2 2 2 2 3 3 4 3 1 1 1 1 1 0 2 2 1 1 1 2 2 3
3 3 4 4 3 3 3 2 1 1 0 1 2 2 2 2 2 2 2 2 2 2 2 2 2 2 4 5 4 3 1 1 1 1 0 1 1 0 1 2 2 3 3
2 3 3 4 3 3 3 2 1 1 1 1 1 2 2 1 2 2 2 2 2 3 3 3 2 2 3 4 4 4 3 2 1 1 0 1 1 1 2 2 3 4 3
2 2 3 3 3 3 2 2 1 1 1 1 1 1 2 1 1 2 2 2 2 2 2 3 3 2 3 3 4 5 4 4 1 1 1 1 2 2 2 4 4 3 2
1 2 2 3 2 2 2 1 1 1 1 1 1 1 1 2 1 1 2 2 1 2 1 1 1 1 2 3 2 2 2 2 2 2 2 3 4 3 3 2 2 2 2
1 1 2 2 2 2 2 2 1 1 1 1 1 1 1 1 1 1 0 1 1 2 2 1 1 1 1 2 3 2 2 2 1 1 2 1 1 1 2 2 2 2 1
0 1 1 2 2 2 1 2 2 2 1 1 1 1 2 2 2 2 1 2 1 3 3 2 2 1 2 4 4 3 2 2 2 1 2 2 2 2 2 1 1 1 1
Wind_Direction
175 153 147 144 140 140 143 145 150 147 153 158 165 166 172 175 160 153 148 153 163 175 168 176 181 193 188 165 194 267 251 247 260 270 273 248 210 191 181 184 186 188 184
167 152 154 152 151 150 149 148 149 156 168 162 169 166 161 170 151 147 149 154 160 182 188 188 200 194 205 195 227 252 283 270 236 255 292 262 232 227 207 188 193 192 187
168 164 161 158 160 156 156 159 158 164 169 158 163 151 145 154 154 159 162 165 169 172 187 189 225 210 194 194 218 243 254 280 279 202 233 286 266 263 203 195 188 180 181
166 166 165 164 164 159 158 157 157 161 165 164 172 173 172 174 169 159 162 164 163 171 182 180 201 217 202 202 230 232 258 260 271 269 221 236 258 251 282 277 203 194 182
166 165 168 165 163 160 160 158 154 158 168 177 180 185 175 174 162 158 159 163 166 176 178 175 184 197 196 211 226 245 263 258 262 269 258 255 255 241 220 240 227 212 205
159 156 157 158 163 162 159 155 156 161 166 179 181 187 179 173 172 169 164 174 168 177 180 183 182 193 204 211 220 220 233 259 277 286 278 266 257 248 237 236 225 213 226
149 150 158 165 172 165 161 160 160 163 166 177 183 183 181 180 182 181 176 181 170 171 183 200 195 202 209 205 217 218 229 246 253 267 278 275 265 256 250 252 254 230 227
150 155 164 168 173 165 158 157 156 162 167 175 182 175 179 184 178 186 182 183 186 178 175 189 195 212 215 210 208 240 222 230 250 257 263 268 264 263 251 248 257 264 252
161 163 165 164 164 165 157 157 156 161 167 171 171 172 174 175 169 168 178 185 198 178 162 177 185 197 207 215 203 231 237 222 233 254 262 262 267 258 256 241 240 251 263
156 151 154 157 163 165 155 153 154 162 165 171 180 175 171 170 164 164 167 172 181 168 162 178 184 195 199 199 219 245 225 218 233 250 276 274 271 269 259 244 245 246 244
145 147 154 147 152 159 158 153 151 158 166 173 175 169 171 171 169 170 169 170 173 160 168 181 189 202 203 196 210 248 237 226 238 258 286 296 293 294 291 276 258 249 231
144 147 146 145 153 151 149 147 153 166 171 171 169 168 165 166 166 167 165 163 168 181 181 191 204 215 213 210 212 241 252 239 250 259 288 302 307 306 293 289 277 273 257
124 128 133 137 148 148 145 149 161 168 168 167 165 163 169 168 165 168 168 167 171 183 201 204 216 219 231 216 216 236 254 247 251 257 272 296 317 304 293 278 277 287 290
117 122 127 131 131 132 139 149 162 161 161 158 158 163 168 173 173 178 173 170 176 189 206 210 216 216 228 232 223 237 244 247 254 265 258 269 284 278 274 271 278 287 291
117 114 115 108 122 128 130 138 141 134 136 141 146 155 154 160 167 175 168 168 182 192 199 206 224 226 214 236 286 256 237 252 261 275 264 248 354 298 265 265 263 268 265
127 120 109 114 114 121 133 128 130 133 137 145 156 159 158 161 168 177 174 173 181 190 197 211 216 231 228 92 60 5 270 257 253 254 260 227 238 244 244 254 244 253 247
115 108 106 104 96 92 101 124 133 125 140 150 157 168 177 174 173 183 173 174 184 194 204 218 205 177 135 119 88 358 267 236 241 245 254 265 254 224 218 227 220 226 237
118 105 104 106 88 75 84 101 111 131 147 154 171 184 176 169 171 179 173 176 182 192 206 211 204 179 156 143 122 330 278 247 225 237 254 264 260 249 9 269 254 241 239
89 101 120 120 101 97 96 97 94 146 166 172 177 177 172 163 167 174 177 176 182 196 207 201 203 168 153 162 161 272 267 241 230 240 260 259 230 88 44 286 271 273 258
77 101 114 121 120 110 107 118 128 138 162 173 161 147 153 156 155 165 166 169 179 191 199 187 188 171 160 165 168 178 263 245 245 213 136 57 58 73 77 269 263 273 280
89 107 121 125 118 113 111 108 90 62 83 124 144 145 137 145 150 148 150 163 187 188 185 183 189 170 157 164 180 190 252 284 268 271 263 101 97 66 271 272 262 263 287
82 99 109 109 109 116 122 114 86 43 46 77 101 120 122 138 141 147 173 186 196 195 192 193 197 179 157 162 183 199 225 279 303 316 8 109 157 263 277 276 267 267 282
88 94 108 110 108 108 112 119 89 52 39 59 82 108 122 127 136 169 192 196 203 215 204 195 196 177 153 150 172 198 225 248 259 342 6 268 230 243 254 253 256 255 257
98 100 120 125 126 129 137 126 115 99 94 76 79 128 156 154 148 179 198 196 207 221 210 193 196 163 153 145 156 191 206 226 233 258 276 247 244 248 250 253 240 228 235
128 155 154 155 159 158 158 150 146 143 164 159 158 177 187 160 143 170 254 209 195 198 179 170 176 178 157 171 180 195 202 207 225 259 246 245 244 233 225 222 216 212 202
94 230 187 173 161 164 169 165 162 162 180 185 201 218 210 174 174 189 175 40 152 148 144 142 154 137 149 165 170 174 203 212 202 231 257 253 250 242 229 215 204 195 191